EJU2896 EDDM-LIMC

Flight info

Callsign EJU2896
Flight time 0h 42m
Altitude 24000
Route MERSI5S/26L MERSI Y100 ATMAX Z999 KPT/N0405F230 Z999 BEMKI L607 XEBIX Y740 NATAG DCT LORLO DCT ATPED DCT LUSIL DCT EVRIP
Aircraft A20N/M-SDE2E3FGHIRWXY/LB1

Departure

Time 2026-05-07 13:57
Airport Munich Airport (EDDM)

Arrival

Time 2026-05-07 14:39
Airport Milan Malpensa International Airport (LIMC)
Time Latitude Longitude Altitude Speed Heading
2026-05-07 13:11 48.34974 11.77991 1467 ft 0 kts 83°
2026-05-07 13:43 48.34973 11.77987 1467 ft 2 kts 84°
2026-05-07 13:43 48.34971 11.77965 1467 ft 2 kts 83°
2026-05-07 13:43 48.34971 11.77942 1468 ft 2 kts 97°
2026-05-07 13:43 48.34974 11.77920 1468 ft 2 kts 110°
2026-05-07 13:44 48.34980 11.77900 1468 ft 2 kts 125°
2026-05-07 13:44 48.34990 11.77883 1469 ft 2 kts 140°
2026-05-07 13:44 48.35003 11.77871 1469 ft 2 kts 154°
2026-05-07 13:44 48.35017 11.77863 1469 ft 2 kts 168°
2026-05-07 13:45 48.35024 11.77861 1469 ft 1 kts 177°
2026-05-07 13:45 48.35027 11.77861 1469 ft 0 kts 175°
2026-05-07 13:48 48.35019 11.77862 1469 ft 3 kts 177°
2026-05-07 13:48 48.34980 11.77876 1469 ft 7 kts 166°
2026-05-07 13:49 48.34940 11.77888 1469 ft 5 kts 173°
2026-05-07 13:49 48.34901 11.77894 1469 ft 6 kts 180°
2026-05-07 13:49 48.34849 11.77881 1469 ft 8 kts 191°
2026-05-07 13:49 48.34792 11.77880 1469 ft 8 kts 172°
2026-05-07 13:50 48.34725 11.77889 1469 ft 11 kts 176°
2026-05-07 13:50 48.34671 11.77957 1469 ft 12 kts 94°
2026-05-07 13:50 48.34676 11.78086 1469 ft 12 kts 85°
2026-05-07 13:50 48.34688 11.78224 1469 ft 13 kts 82°
2026-05-07 13:51 48.34701 11.78368 1470 ft 13 kts 81°
2026-05-07 13:51 48.34712 11.78502 1473 ft 12 kts 82°
2026-05-07 13:51 48.34722 11.78634 1473 ft 12 kts 85°
2026-05-07 13:51 48.34731 11.78767 1474 ft 12 kts 83°
2026-05-07 13:52 48.34744 11.78904 1474 ft 13 kts 84°
2026-05-07 13:52 48.34755 11.79066 1472 ft 16 kts 84°
2026-05-07 13:52 48.34768 11.79254 1469 ft 19 kts 83°
2026-05-07 13:52 48.34784 11.79453 1468 ft 18 kts 83°
2026-05-07 13:53 48.34759 11.79544 1466 ft 10 kts 160°
2026-05-07 13:53 48.34704 11.79553 1467 ft 7 kts 178°
2026-05-07 13:53 48.34655 11.79552 1468 ft 6 kts 190°
2026-05-07 13:53 48.34617 11.79521 1469 ft 6 kts 232°
2026-05-07 13:54 48.34615 11.79516 1469 ft 0 kts 232°
2026-05-07 13:54 48.34609 11.79506 1469 ft 2 kts 232°
2026-05-07 13:54 48.34595 11.79478 1469 ft 4 kts 233°
2026-05-07 13:54 48.34575 11.79440 1469 ft 5 kts 231°
2026-05-07 13:55 48.34554 11.79400 1470 ft 4 kts 231°
2026-05-07 13:55 48.34539 11.79372 1471 ft 2 kts 232°
2026-05-07 13:55 48.34515 11.79319 1472 ft 9 kts 236°
2026-05-07 13:55 48.34470 11.79226 1472 ft 11 kts 232°
2026-05-07 13:56 48.34422 11.79128 1472 ft 12 kts 235°
2026-05-07 13:56 48.34373 11.79032 1474 ft 10 kts 251°
2026-05-07 13:56 48.34356 11.78851 1476 ft 43 kts 264°
2026-05-07 13:56 48.34290 11.78006 1477 ft 116 kts 264°
2026-05-07 13:57 48.34172 11.76525 1592 ft 161 kts 266°
2026-05-07 13:57 48.34066 11.74879 2259 ft 161 kts 268°
2026-05-07 13:57 48.33965 11.73212 3035 ft 160 kts 266°
2026-05-07 13:57 48.33846 11.71581 3681 ft 160 kts 265°
2026-05-07 13:58 48.33720 11.69950 4299 ft 161 kts 265°
2026-05-07 13:58 48.33584 11.68267 4893 ft 166 kts 265°
2026-05-07 13:58 48.33437 11.66480 5320 ft 182 kts 264°
2026-05-07 13:58 48.33273 11.64455 5669 ft 204 kts 264°
2026-05-07 13:59 48.33106 11.62170 5879 ft 235 kts 265°
2026-05-07 13:59 48.32921 11.59594 6135 ft 255 kts 264°
2026-05-07 13:59 48.32728 11.56933 6586 ft 266 kts 264°
2026-05-07 13:59 48.32527 11.54193 7601 ft 264 kts 264°
2026-05-07 14:00 48.32148 11.51519 8514 ft 267 kts 245°
2026-05-07 14:00 48.30969 11.49401 9378 ft 272 kts 223°
2026-05-07 14:00 48.29527 11.47568 10266 ft 274 kts 224°
2026-05-07 14:00 48.28088 11.45686 10896 ft 285 kts 224°
2026-05-07 14:01 48.26591 11.43671 11592 ft 292 kts 225°
2026-05-07 14:01 48.25094 11.41622 12391 ft 295 kts 225°
2026-05-07 14:01 48.23584 11.39535 13166 ft 299 kts 225°
2026-05-07 14:01 48.22054 11.37407 13945 ft 302 kts 225°
2026-05-07 14:02 48.20505 11.35248 14674 ft 306 kts 225°
2026-05-07 14:02 48.18900 11.33183 15389 ft 311 kts 219°
2026-05-07 14:02 48.17156 11.31265 16114 ft 315 kts 218°
2026-05-07 14:02 48.15368 11.29349 16838 ft 318 kts 218°
2026-05-07 14:03 48.13583 11.27421 17540 ft 322 kts 218°
2026-05-07 14:03 48.11758 11.25433 18242 ft 325 kts 218°
2026-05-07 14:03 48.09924 11.23423 18921 ft 329 kts 219°
2026-05-07 14:03 48.08098 11.21414 19565 ft 333 kts 219°
2026-05-07 14:04 48.06224 11.19350 20202 ft 337 kts 219°
2026-05-07 14:04 48.04334 11.17267 20846 ft 341 kts 219°
2026-05-07 14:04 48.02424 11.15165 21468 ft 344 kts 219°
2026-05-07 14:04 48.00486 11.13033 22106 ft 347 kts 219°
2026-05-07 14:05 47.98534 11.10889 22709 ft 351 kts 219°
2026-05-07 14:05 47.96560 11.08721 23284 ft 355 kts 219°
2026-05-07 14:05 47.94586 11.06565 23808 ft 359 kts 219°
2026-05-07 14:05 47.92545 11.04350 24013 ft 362 kts 219°
2026-05-07 14:06 47.90507 11.02141 24021 ft 363 kts 218°
2026-05-07 14:06 47.88446 10.99911 24280 ft 369 kts 219°
2026-05-07 14:06 47.86394 10.97689 24924 ft 369 kts 219°
2026-05-07 14:06 47.84315 10.95443 25538 ft 371 kts 219°
2026-05-07 14:07 47.82243 10.93205 26044 ft 374 kts 219°
2026-05-07 14:07 47.80106 10.90901 26534 ft 377 kts 218°
2026-05-07 14:07 47.77983 10.88612 27009 ft 380 kts 218°
2026-05-07 14:07 47.75849 10.86314 27481 ft 382 kts 218°
2026-05-07 14:08 47.73720 10.84024 27899 ft 385 kts 218°
2026-05-07 14:08 47.71526 10.81667 28007 ft 386 kts 218°
2026-05-07 14:08 47.69352 10.79363 28007 ft 386 kts 215°
2026-05-07 14:08 47.66900 10.77631 28082 ft 398 kts 200°
2026-05-07 14:09 47.64234 10.76705 28646 ft 399 kts 191°
2026-05-07 14:09 47.61472 10.76335 29213 ft 400 kts 185°
2026-05-07 14:09 47.58709 10.76150 29641 ft 402 kts 185°
2026-05-07 14:09 47.55907 10.75948 30035 ft 404 kts 185°
2026-05-07 14:10 47.53091 10.75710 30435 ft 406 kts 186°
2026-05-07 14:10 47.50278 10.75452 30924 ft 406 kts 186°
2026-05-07 14:10 47.47495 10.75187 31383 ft 403 kts 186°
2026-05-07 14:10 47.44716 10.74920 31762 ft 401 kts 186°
2026-05-07 14:11 47.41924 10.74650 31961 ft 400 kts 186°
2026-05-07 14:11 47.36385 10.74108 32007 ft 398 kts 187°
2026-05-07 14:12 47.30878 10.73572 32030 ft 397 kts 187°
2026-05-07 14:12 47.25407 10.73040 32017 ft 396 kts 186°
2026-05-07 14:13 47.19918 10.72509 32025 ft 396 kts 186°
2026-05-07 14:13 47.14440 10.71980 32028 ft 396 kts 187°
2026-05-07 14:14 47.08951 10.71451 32037 ft 396 kts 187°
2026-05-07 14:14 47.03437 10.70921 32034 ft 396 kts 187°
2026-05-07 14:15 46.98078 10.69195 32031 ft 405 kts 205°
2026-05-07 14:15 46.93195 10.64868 32022 ft 420 kts 220°
2026-05-07 14:16 46.88536 10.59385 32006 ft 437 kts 221°
2026-05-07 14:16 46.83629 10.54100 32002 ft 442 kts 218°
2026-05-07 14:17 46.78636 10.48972 31990 ft 442 kts 218°
2026-05-07 14:17 46.73589 10.43836 31980 ft 441 kts 218°
2026-05-07 14:18 46.68593 10.38754 31983 ft 441 kts 218°
2026-05-07 14:18 46.63544 10.33629 31979 ft 440 kts 218°
2026-05-07 14:19 46.58563 10.28578 31966 ft 440 kts 218°
2026-05-07 14:19 46.53554 10.23514 31995 ft 439 kts 218°
2026-05-07 14:19 46.51058 10.20995 31876 ft 435 kts 218°
2026-05-07 14:20 46.48580 10.18496 31337 ft 433 kts 218°
2026-05-07 14:20 46.46112 10.16010 30386 ft 439 kts 218°
2026-05-07 14:20 46.43624 10.13501 29268 ft 447 kts 218°
2026-05-07 14:20 46.41060 10.10919 28159 ft 452 kts 218°
2026-05-07 14:21 46.38465 10.08312 27077 ft 455 kts 217°
2026-05-07 14:21 46.35898 10.05740 26124 ft 457 kts 217°
2026-05-07 14:21 46.33270 10.03109 25555 ft 461 kts 217°
2026-05-07 14:21 46.30613 10.00452 25009 ft 465 kts 217°
2026-05-07 14:22 46.27970 9.97813 24462 ft 467 kts 217°
2026-05-07 14:22 46.25315 9.95167 23948 ft 468 kts 217°
2026-05-07 14:22 46.22637 9.92498 23413 ft 470 kts 217°
2026-05-07 14:22 46.19942 9.89818 22895 ft 471 kts 217°
2026-05-07 14:23 46.17256 9.87152 22358 ft 463 kts 217°
2026-05-07 14:23 46.14657 9.84558 21851 ft 462 kts 218°
2026-05-07 14:23 46.12223 9.81585 21353 ft 453 kts 225°
2026-05-07 14:23 46.10041 9.78449 20864 ft 440 kts 228°
2026-05-07 14:24 46.07944 9.75347 20592 ft 424 kts 228°
2026-05-07 14:24 46.05902 9.72359 20328 ft 410 kts 227°
2026-05-07 14:24 46.03937 9.69531 19943 ft 400 kts 227°
2026-05-07 14:24 46.01963 9.66723 19335 ft 396 kts 227°
2026-05-07 14:25 46.00005 9.63957 18686 ft 394 kts 226°
2026-05-07 14:25 45.98072 9.61242 18075 ft 391 kts 226°
2026-05-07 14:25 45.96125 9.58515 17442 ft 394 kts 226°
2026-05-07 14:25 45.94178 9.55793 16876 ft 396 kts 226°
2026-05-07 14:26 45.92206 9.53042 16346 ft 394 kts 226°
2026-05-07 14:26 45.90248 9.50315 15847 ft 392 kts 226°
2026-05-07 14:26 45.88310 9.47566 15350 ft 390 kts 227°
2026-05-07 14:26 45.86433 9.44796 14866 ft 388 kts 227°
2026-05-07 14:27 45.84573 9.42034 14397 ft 385 kts 227°
2026-05-07 14:27 45.82708 9.39275 13927 ft 383 kts 227°
2026-05-07 14:27 45.80857 9.36547 13463 ft 381 kts 227°
2026-05-07 14:27 45.79033 9.33867 13063 ft 379 kts 226°
2026-05-07 14:28 45.77215 9.31127 12963 ft 379 kts 231°
2026-05-07 14:28 45.75758 9.27995 12958 ft 378 kts 243°
2026-05-07 14:28 45.74576 9.24647 12955 ft 378 kts 245°
2026-05-07 14:28 45.73348 9.21344 12947 ft 379 kts 236°
2026-05-07 14:29 45.71592 9.18587 12721 ft 376 kts 224°
2026-05-07 14:29 45.69629 9.16118 11884 ft 381 kts 221°
2026-05-07 14:29 45.67612 9.13627 10980 ft 386 kts 222°
2026-05-07 14:29 45.65613 9.11093 10309 ft 383 kts 223°
2026-05-07 14:30 45.63654 9.08546 9668 ft 380 kts 223°
2026-05-07 14:30 45.61727 9.06003 9003 ft 377 kts 223°
2026-05-07 14:30 45.59845 9.03494 8364 ft 374 kts 223°
2026-05-07 14:30 45.57954 9.00965 7712 ft 371 kts 223°
2026-05-07 14:31 45.56078 8.98454 7111 ft 363 kts 223°
2026-05-07 14:31 45.54291 8.96064 6643 ft 342 kts 223°
2026-05-07 14:31 45.52626 8.93837 6185 ft 325 kts 223°
2026-05-07 14:31 45.50994 8.91708 6016 ft 308 kts 217°
2026-05-07 14:32 45.49145 8.90480 5918 ft 288 kts 187°
2026-05-07 14:32 45.47233 8.90745 5848 ft 270 kts 162°
2026-05-07 14:32 45.45499 8.91579 5726 ft 259 kts 161°
2026-05-07 14:32 45.43804 8.92314 5547 ft 250 kts 167°
2026-05-07 14:33 45.42061 8.92367 5005 ft 258 kts 194°
2026-05-07 14:33 45.40461 8.91168 4398 ft 267 kts 223°
2026-05-07 14:33 45.39462 8.88989 4035 ft 266 kts 252°
2026-05-07 14:33 45.39344 8.86383 3973 ft 268 kts 282°
2026-05-07 14:34 45.40072 8.84007 3974 ft 258 kts 303°
2026-05-07 14:34 45.41180 8.82103 3972 ft 241 kts 316°
2026-05-07 14:34 45.42413 8.80613 3969 ft 226 kts 322°
2026-05-07 14:34 45.43649 8.79361 3962 ft 211 kts 330°
2026-05-07 14:35 45.44968 8.78487 3868 ft 210 kts 342°
2026-05-07 14:35 45.46370 8.77931 3619 ft 209 kts 348°
2026-05-07 14:35 45.47784 8.77531 3350 ft 208 kts 350°
2026-05-07 14:35 45.49209 8.77161 3078 ft 207 kts 350°
2026-05-07 14:36 45.50597 8.76791 2898 ft 198 kts 350°
2026-05-07 14:36 45.51943 8.76421 2612 ft 195 kts 350°
2026-05-07 14:36 45.53251 8.76057 2335 ft 189 kts 349°
2026-05-07 14:36 45.54500 8.75709 2062 ft 177 kts 349°
2026-05-07 14:37 45.55655 8.75386 1897 ft 160 kts 349°
2026-05-07 14:37 45.57705 8.74812 1461 ft 145 kts 348°
2026-05-07 14:37 45.58694 8.74548 1278 ft 143 kts 349°
2026-05-07 14:38 45.59660 8.74291 1098 ft 140 kts 349°
2026-05-07 14:38 45.60598 8.74029 922 ft 137 kts 348°
2026-05-07 14:38 45.61543 8.73763 750 ft 136 kts 348°
2026-05-07 14:38 45.62415 8.73520 713 ft 114 kts 350°
2026-05-07 14:39 45.63095 8.73331 726 ft 85 kts 349°
2026-05-07 14:39 45.63605 8.73190 738 ft 66 kts 349°
2026-05-07 14:39 45.64013 8.73077 750 ft 55 kts 349°
2026-05-07 14:39 45.64297 8.72921 760 ft 35 kts 306°
2026-05-07 14:40 45.64413 8.72698 766 ft 18 kts 316°
2026-05-07 14:40 45.64462 8.72650 768 ft 6 kts 335°
2026-05-07 14:40 45.64478 8.72603 768 ft 6 kts 263°
2026-05-07 14:40 45.64467 8.72532 768 ft 8 kts 258°
2026-05-07 14:41 45.64486 8.72494 768 ft 4 kts 351°
2026-05-07 14:41 45.64518 8.72485 769 ft 4 kts 349°
2026-05-07 14:41 45.64537 8.72480 770 ft 0 kts 348°